Weather History for Melfa, VA

Change the Weather History Date:

Wednesday, August 14, 2013

  Actual Average (KWAL) Record (KWAL)
Temperature  
Mean Temperature 71 °F 76 °F  
Max Temperature 78 °F 84 °F 94 °F (1985)
Min Temperature 64 °F 68 °F 59 °F (1983)
Degree Days  
Heating Degree Days 0    
Month to date heating degree days  
Since 1 June heating degree days  
Since 1 July heating degree days  
Cooling Degree Days 6    
Month to date cooling degree days  
Year to date cooling degree days  
Since 1 June cooling degree days  
Growing Degree Days 21 (Base 50)    
Moisture  
Dew Point 60 °F    
Average Humidity 65    
Maximum Humidity 94    
Minimum Humidity 44    
Precipitation  
Precipitation 0.15 in 0.13 in 3.17 in (2004)
Month to date precipitation 2.08  
Year to date precipitation 25.28  
Sea Level Pressure  
Sea Level Pressure 29.94 in    
Wind  
Wind Speed 7 mph (North)    
Max Wind Speed 15 mph    
Max Gust Speed 24 mph    
Visibility 10 miles    
Events Rain    
T = Trace of Precipitation, MM = Missing Value Source: NWS Daily Summary

Daily Weather History Graph

Daily Weather History Graph

Search for Another Location

Airport:

Trip Planner

Search our weather history database for the weather conditions in past years. The results will help you decide how hot, cold, wet, or windy it might be!

Date:

Astronomy

Aug. 14, 2013 Rise Set
Actual Time 6:18 AM EDT 7:56 PM EDT
Civil Twilight 5:50 AM EDT 8:24 PM EDT
Nautical Twilight 5:16 AM EDT 8:58 PM EDT
Astronomical Twilight 4:40 AM EDT 9:33 PM EDT
Moon 2:04 PM EDT (8/14) No Moon Set
Length of Visible Light 14h 34m
Length of Day
13h 38m
First Quarter, 52% of the Moon is Illuminated
Aug 14
First Quarter
Aug 20
Full
Aug 28
Last Quarter
Sep 5
New
Sep 12
First Quarter

Hourly Weather History & Observations

Time (EDT) Temp. Dew Point Humidity Pressure Visibility Wind Dir Wind Speed Gust Speed Precip Events Conditions
12:15 AM 77.0 °F 73.4 °F 89% 29.78 in 7.0 mi Calm Calm - N/A   Scattered Clouds
12:35 AM 77.0 °F 75.2 °F 94% 29.78 in 5.0 mi Calm Calm - N/A   Scattered Clouds
12:56 AM 78.8 °F 75.2 °F 89% 29.78 in 2.5 mi West 3.5 mph - 0.02 in Rain Heavy Rain
1:15 AM 78.8 °F 75.2 °F 89% 29.76 in 7.0 mi Calm Calm - 0.07 in   Mostly Cloudy
1:35 AM 78.8 °F 75.2 °F 89% 29.76 in 4.0 mi Calm Calm - 0.07 in   Scattered Clouds
1:56 AM 75.2 °F 73.4 °F 94% 29.77 in 10.0 mi NNW 8.1 mph 16.1 mph N/A   Mostly Cloudy
2:15 AM 75.2 °F 71.6 °F 89% 29.78 in 5.0 mi NNW 8.1 mph 21.9 mph 0.05 in Rain Heavy Rain
2:35 AM 75.2 °F 69.8 °F 83% 29.79 in 10.0 mi NW 10.4 mph - 0.06 in   Mostly Cloudy
2:56 AM 73.4 °F 69.8 °F 88% 29.78 in 10.0 mi North 10.4 mph - N/A Rain Light Rain
3:16 AM 73.4 °F 69.8 °F 88% 29.78 in 10.0 mi North 6.9 mph - N/A   Scattered Clouds
3:35 AM 73.4 °F 69.8 °F 88% 29.79 in 10.0 mi North 4.6 mph - N/A   Scattered Clouds
3:55 AM 73.4 °F 69.8 °F 88% 29.79 in 10.0 mi North 6.9 mph - N/A   Scattered Clouds
4:15 AM 73.4 °F 69.8 °F 88% 29.79 in 10.0 mi North 8.1 mph - N/A   Mostly Cloudy
4:38 AM 73.4 °F 69.8 °F 88% 29.81 in 10.0 mi North 11.5 mph 18.4 mph N/A   Mostly Cloudy
4:58 AM 73.4 °F 68.0 °F 83% 29.81 in 10.0 mi North 12.7 mph 17.3 mph N/A   Mostly Cloudy
5:16 AM 73.4 °F 66.2 °F 78% 29.82 in 10.0 mi North 11.5 mph 16.1 mph N/A   Scattered Clouds
5:35 AM 73.4 °F 66.2 °F 78% 29.83 in 10.0 mi North 11.5 mph 16.1 mph N/A   Clear
5:55 AM 73.4 °F 66.2 °F 78% 29.84 in 10.0 mi North 13.8 mph - N/A   Clear
6:15 AM 73.4 °F 62.6 °F 69% 29.86 in 10.0 mi North 11.5 mph 18.4 mph N/A   Clear
6:36 AM 71.6 °F 62.6 °F 73% 29.87 in 10.0 mi North 13.8 mph 18.4 mph N/A   Clear
6:55 AM 71.6 °F 62.6 °F 73% 29.88 in 10.0 mi North 15.0 mph 20.7 mph N/A   Clear
7:15 AM 71.6 °F 60.8 °F 69% 29.89 in 10.0 mi North 15.0 mph 23.0 mph N/A   Clear
7:36 AM 71.6 °F 60.8 °F 69% 29.91 in 10.0 mi North 15.0 mph 20.7 mph N/A   Clear
7:55 AM 71.6 °F 59.0 °F 64% 29.92 in 10.0 mi North 15.0 mph 21.9 mph N/A   Clear
8:15 AM 71.6 °F 59.0 °F 64% 29.92 in 10.0 mi North 13.8 mph 21.9 mph N/A   Clear
8:35 AM 71.6 °F 60.8 °F 69% 29.93 in 10.0 mi North 13.8 mph 21.9 mph N/A   Clear
8:55 AM 71.6 °F 57.2 °F 60% 29.93 in 10.0 mi North 10.4 mph 23.0 mph N/A   Clear
9:15 AM 71.6 °F 55.4 °F 57% 29.94 in 10.0 mi North 13.8 mph 23.0 mph N/A   Clear
9:35 AM 71.6 °F 55.4 °F 57% 29.94 in 10.0 mi North 9.2 mph 18.4 mph N/A   Clear
9:55 AM 71.6 °F 53.6 °F 53% 29.95 in 10.0 mi North 10.4 mph 18.4 mph N/A   Clear
10:15 AM 71.6 °F 51.8 °F 50% 29.96 in 10.0 mi North 12.7 mph 19.6 mph N/A   Clear
10:35 AM 73.4 °F 50.0 °F 44% 29.97 in 10.0 mi North 15.0 mph 23.0 mph N/A   Clear
10:55 AM 71.6 °F 50.0 °F 46% 29.97 in 10.0 mi NNW 15.0 mph 24.2 mph N/A   Clear
11:15 AM 73.4 °F 51.8 °F 47% 29.98 in 10.0 mi North 9.2 mph 21.9 mph N/A   Scattered Clouds
11:35 AM 73.4 °F 53.6 °F 50% 29.99 in 10.0 mi NNW 11.5 mph 23.0 mph N/A   Scattered Clouds
11:55 AM 73.4 °F 53.6 °F 50% 29.98 in 10.0 mi NNW 12.7 mph 20.7 mph N/A   Clear
12:15 PM 73.4 °F 53.6 °F 50% 29.98 in 10.0 mi NNW 11.5 mph 20.7 mph N/A   Clear
12:37 PM 73.4 °F 53.6 °F 50% 29.98 in 10.0 mi NNW 9.2 mph 16.1 mph N/A   Clear
12:55 PM 73.4 °F 53.6 °F 50% 29.99 in 10.0 mi NW 12.7 mph 19.6 mph N/A   Clear
1:15 PM 73.4 °F 53.6 °F 50% 29.99 in 10.0 mi NNW 11.5 mph 17.3 mph N/A   Clear
1:35 PM 73.4 °F 53.6 °F 50% 29.99 in 10.0 mi NNW 10.4 mph 23.0 mph N/A   Clear
1:55 PM 73.4 °F 53.6 °F 50% 29.99 in 10.0 mi North 10.4 mph 18.4 mph N/A   Clear
2:15 PM 75.2 °F 53.6 °F 47% 29.99 in 10.0 mi NNW 9.2 mph 20.7 mph N/A   Clear
2:35 PM 75.2 °F 53.6 °F 47% 29.98 in 10.0 mi NW 12.7 mph 20.7 mph N/A   Clear
2:56 PM 75.2 °F 55.4 °F 50% 29.98 in 10.0 mi NNW 5.8 mph 24.2 mph N/A   Clear
3:55 PM 75.2 °F 53.6 °F 47% 29.98 in 10.0 mi NNW 10.4 mph 19.6 mph N/A   Scattered Clouds
4:15 PM 75.2 °F 53.6 °F 47% 29.98 in 10.0 mi NNW 12.7 mph 19.6 mph N/A   Clear
4:35 PM 75.2 °F 55.4 °F 50% 29.98 in 10.0 mi NW 10.4 mph 18.4 mph N/A   Clear
4:55 PM 75.2 °F 53.6 °F 47% 29.99 in 10.0 mi NNW 9.2 mph 19.6 mph N/A   Clear
5:16 PM 75.2 °F 53.6 °F 47% 30.00 in 10.0 mi NNW 10.4 mph 20.7 mph N/A   Clear
5:35 PM 75.2 °F 53.6 °F 47% 30.00 in 10.0 mi NNW 9.2 mph 17.3 mph N/A   Clear
5:55 PM 75.2 °F 53.6 °F 47% 30.00 in 10.0 mi NNW 9.2 mph 16.1 mph N/A   Clear
6:15 PM 75.2 °F 55.4 °F 50% 30.00 in 10.0 mi NNW 10.4 mph - N/A   Clear
6:35 PM 75.2 °F 53.6 °F 47% 30.00 in 10.0 mi NNW 5.8 mph - N/A   Scattered Clouds
6:56 PM 75.2 °F 55.4 °F 50% 30.00 in 10.0 mi NNW 8.1 mph - N/A   Scattered Clouds
7:15 PM 73.4 °F 55.4 °F 53% 30.00 in 10.0 mi NW 5.8 mph - N/A   Scattered Clouds
7:35 PM 73.4 °F 55.4 °F 53% 30.01 in 10.0 mi NNW 5.8 mph - N/A   Scattered Clouds
7:56 PM 73.4 °F 55.4 °F 53% 30.02 in 10.0 mi NNW 4.6 mph - N/A   Scattered Clouds
8:16 PM 71.6 °F 55.4 °F 57% 30.03 in 10.0 mi NNW 3.5 mph - N/A   Scattered Clouds
8:35 PM 71.6 °F 55.4 °F 57% 30.04 in 10.0 mi Calm Calm - N/A   Mostly Cloudy
8:56 PM 69.8 °F 60.8 °F 73% 30.04 in 10.0 mi Calm Calm - N/A   Mostly Cloudy
9:16 PM 68.0 °F 60.8 °F 78% 30.05 in 10.0 mi Calm Calm - N/A   Mostly Cloudy
9:35 PM 68.0 °F 59.0 °F 73% 30.06 in 10.0 mi NE 5.8 mph - N/A   Mostly Cloudy
9:55 PM 68.0 °F 57.2 °F 68% 30.07 in 10.0 mi NNE 3.5 mph - N/A   Scattered Clouds
10:16 PM 66.2 °F 59.0 °F 78% 30.07 in 10.0 mi NE 3.5 mph - N/A   Scattered Clouds
10:35 PM 66.2 °F 57.2 °F 73% 30.08 in 10.0 mi ENE 3.5 mph - N/A   Scattered Clouds
10:55 PM 64.4 °F 57.2 °F 77% 30.08 in 10.0 mi ENE 3.5 mph - N/A   Scattered Clouds
11:15 PM 66.2 °F 57.2 °F 73% 30.09 in 10.0 mi NE 3.5 mph - N/A   Mostly Cloudy
11:35 PM 64.4 °F 57.2 °F 77% 30.09 in 10.0 mi ENE 3.5 mph - N/A   Scattered Clouds
11:55 PM 64.4 °F 57.2 °F 77% 30.10 in 10.0 mi NE 5.8 mph - N/A   Scattered Clouds